Wind_Speed
2 6 2 2 2 1 2 2 5 5 2 7 4 14 20 23 17 17 18 24 25 26 24 22 19 20 22 22 22 20 16 11 8 8 5 4 2 1 4 7 7 9 12 15
5 2 2 2 1 1 1 3 5 6 3 5 6 17 6 5 3 11 9 16 26 25 26 24 24 23 24 24 22 19 15 11 8 6 4 2 2 3 5 7 7 9 11 13
2 2 2 1 1 3 3 3 2 5 9 1 9 6 4 3 6 13 15 7 20 28 30 29 29 26 25 24 21 19 15 11 7 6 5 4 4 4 5 6 9 10 12 13
4 1 1 0 2 2 3 2 1 3 5 2 4 4 4 1 5 7 12 10 6 22 29 31 31 27 25 24 22 19 15 12 8 6 6 6 6 5 7 8 10 11 12 13
2 2 1 2 2 1 5 1 3 2 3 4 1 4 6 1 5 4 7 7 6 3 23 31 31 27 23 22 22 19 17 14 10 8 8 7 7 7 8 9 11 12 13 14
3 2 3 1 2 2 4 3 4 3 3 3 4 4 5 1 2 1 3 5 6 4 8 25 27 24 21 20 21 21 19 17 13 10 10 9 8 8 10 11 12 13 14 15
2 1 0 1 1 2 4 5 4 5 3 4 3 2 7 2 1 2 4 4 5 8 7 21 26 23 21 20 19 21 20 17 14 12 11 10 9 9 11 12 13 14 15 16
3 6 1 3 2 5 3 5 4 5 2 5 2 5 4 2 4 7 7 6 4 5 10 15 19 20 20 19 19 19 18 17 14 13 11 9 9 10 12 13 14 15 17 17
3 4 1 3 2 2 1 1 3 3 0 1 3 5 3 3 3 7 7 4 3 3 5 9 13 15 17 16 16 15 14 13 13 12 10 10 10 12 12 12 14 16 18 19
3 3 2 1 2 3 3 1 3 2 1 4 5 5 4 3 1 6 9 11 7 3 3 6 10 12 12 11 10 11 11 12 12 12 11 11 10 10 11 14 18 19 20 21
3 3 1 1 5 7 1 1 2 1 4 4 2 5 3 2 4 6 9 14 14 14 12 8 7 10 11 10 9 9 11 10 10 11 9 8 10 14 23 20 20 22 22 21
1 4 3 6 2 1 2 4 4 4 5 3 2 5 3 7 7 11 14 18 18 13 14 9 1 12 9 6 6 7 9 9 8 8 11 15 23 24 18 20 21 22 24 24
5 1 3 6 4 3 2 4 4 2 2 6 7 5 2 5 12 16 11 8 9 11 11 7 9 7 5 4 4 3 5 7 11 17 19 17 18 19 21 23 25 25 27 28
8 3 7 8 6 5 2 5 6 5 5 7 11 13 5 6 4 5 5 6 7 7 8 7 7 6 3 1 3 6 9 13 15 17 19 21 21 23 25 26 27 28 28 29
5 6 5 7 9 7 14 13 11 15 18 15 17 13 3 4 2 1 6 8 6 5 2 3 3 4 7 10 13 14 13 14 17 20 23 25 26 27 28 29 30 30 30 30
4 4 1 5 9 13 19 11 15 18 15 16 16 12 4 1 6 11 13 9 5 2 5 4 3 7 10 10 12 15 18 21 23 26 28 28 28 29 29 30 30 30 30 31
6 4 2 14 3 5 7 12 13 2 1 1 3 2 1 2 3 11 12 7 1 4 4 6 8 6 8 12 17 21 23 25 28 30 29 29 29 30 30 30 31 33 35 35
6 4 3 7 2 9 4 2 3 11 2 6 5 1 2 5 10 6 7 7 5 6 5 3 5 7 10 16 22 27 30 32 32 30 30 29 29 30 32 32 33 33 31 34
6 4 3 3 5 2 2 1 2 4 3 2 2 2 5 10 1 8 6 6 5 1 6 9 11 14 19 24 27 31 33 33 32 31 31 31 31 33 33 34 34 31 32 35
4 3 4 1 4 5 3 3 3 2 3 4 6 2 4 5 3 2 1 4 6 8 12 12 15 17 22 25 29 32 32 31 32 33 33 34 33 32 34 30 30 33 33 33
1 1 4 4 3 3 3 1 2 3 3 5 6 4 6 2 0 5 11 12 14 16 15 14 17 21 26 29 30 31 31 32 32 33 33 32 30 29 29 29 27 28 28 27
5 5 4 0 2 7 2 2 2 4 6 6 6 4 7 8 9 13 14 15 15 18 18 18 22 26 28 27 29 31 31 31 31 31 30 28 26 25 23 21 23 24 24 25
3 5 3 5 2 4 2 14 13 10 7 2 1 3 8 13 15 16 17 14 18 17 19 22 26 29 26 26 27 30 30 29 29 28 27 25 22 20 19 22 24 23 22 23
4 1 1 3 4 6 13 11 7 7 6 3 6 9 11 13 14 15 15 16 18 19 22 25 25 26 27 26 27 27 28 28 28 26 23 21 23 23 20 19 22 23 24 24
6 1 3 1 7 11 8 6 11 7 5 7 10 12 12 14 15 16 17 17 19 22 23 23 25 26 27 27 27 26 25 26 25 23 21 22 25 21 21 21 23 25 23 23
5 6 3 3 12 5 7 12 6 7 10 11 14 14 13 14 16 17 18 20 23 24 24 25 24 24 25 26 26 24 22 21 21 21 22 24 24 22 22 24 29 25 24 23
Wind_Direction
20 66 79 149 46 107 144 251 279 258 39 343 262 290 300 307 284 283 258 223 204 201 195 196 201 201 198 197 192 191 187 181 183 183 189 200 205 329 338 340 348 351 353 356
25 108 157 129 95 91 264 291 297 296 12 348 324 305 302 356 17 4 262 205 198 188 184 188 192 199 204 201 196 193 188 188 188 193 207 222 255 300 314 325 335 344 345 350
146 154 136 84 95 43 309 231 276 251 327 309 329 319 323 339 11 38 55 77 200 190 188 189 194 200 203 203 200 199 195 197 198 209 221 230 229 257 283 307 318 328 335 344
85 175 134 179 108 98 303 160 286 316 30 292 25 283 323 353 22 23 31 49 81 202 193 193 193 198 204 202 204 204 207 209 215 233 242 247 255 267 286 300 310 318 321 328
250 164 173 216 147 63 238 287 235 174 93 47 298 65 268 319 28 355 5 32 44 119 204 194 196 203 204 207 210 212 216 221 230 242 250 258 263 274 288 293 297 302 313 322
94 58 50 119 288 225 319 349 64 57 98 15 235 122 283 288 219 16 18 57 52 108 153 199 199 199 201 210 218 223 226 230 239 249 253 260 267 274 280 286 293 299 302 309
72 48 35 4 324 336 51 47 338 353 6 227 200 13 249 172 40 110 156 113 84 76 148 173 183 191 201 212 223 231 236 240 246 253 258 264 275 287 290 292 294 295 298 301
129 312 70 3 130 182 56 129 153 252 255 287 219 242 278 105 93 96 107 120 118 123 130 160 182 196 207 215 228 239 242 244 254 260 265 280 296 299 298 299 299 298 297 300
140 269 139 44 31 86 188 160 141 93 332 47 256 288 7 82 92 87 96 103 119 165 192 205 205 214 222 226 242 249 245 249 255 265 280 295 305 306 305 303 299 297 297 298
174 331 170 97 61 32 127 144 62 20 296 254 281 276 235 200 185 54 33 24 21 355 292 257 245 241 237 238 238 237 244 256 274 286 295 302 304 302 306 308 302 300 300 301
129 114 272 106 197 180 30 9 30 137 173 199 265 261 227 58 70 83 45 18 13 9 6 347 249 207 220 214 214 229 253 268 293 299 303 304 299 296 291 290 295 297 295 297
150 140 227 225 295 311 186 184 151 142 257 231 210 268 98 139 130 52 32 15 7 353 286 297 323 160 172 182 202 238 271 292 294 282 286 283 279 288 293 295 292 294 295 295
198 244 346 322 6 16 179 252 205 147 54 202 262 265 129 89 52 45 51 45 40 29 43 114 172 196 189 174 186 239 270 268 284 294 307 320 310 300 298 296 295 294 295 296
161 188 186 223 203 138 181 200 208 185 228 256 230 259 214 53 103 96 45 15 15 18 32 72 101 116 130 208 283 299 312 322 335 324 310 306 305 302 300 298 297 297 296 294
152 207 226 247 258 255 264 254 225 222 246 248 270 268 92 108 99 349 343 345 328 343 28 90 79 39 17 5 358 353 340 326 319 316 314 312 308 304 300 299 298 296 295 295
186 258 213 257 237 252 260 254 250 251 255 259 270 277 140 317 342 348 353 347 328 16 100 67 22 30 31 7 345 336 329 326 323 319 316 311 307 305 302 301 298 296 295 294
171 184 205 277 203 313 265 229 229 167 113 270 206 108 297 304 337 336 343 352 18 116 89 41 49 23 359 352 342 334 329 325 322 320 317 313 309 305 304 303 301 300 299 296
169 166 197 280 117 260 265 311 142 108 91 87 93 106 242 319 336 34 41 94 109 99 65 13 332 322 329 334 332 329 327 324 322 320 317 315 312 309 306 302 300 302 302 299
223 160 233 239 213 341 221 139 171 138 163 104 134 305 335 309 22 63 78 92 104 48 334 317 316 313 315 321 322 321 320 321 322 320 318 316 314 310 308 307 307 304 301 300
40 50 207 162 240 244 204 147 68 91 159 68 115 137 70 37 74 251 255 312 321 325 327 321 317 311 314 321 321 319 320 322 321 321 319 316 315 312 308 307 307 303 302 301
144 292 221 242 275 254 182 72 81 178 175 161 140 90 46 72 136 331 324 330 335 332 332 327 318 320 324 323 318 318 322 322 320 318 316 317 315 311 310 309 309 307 308 305
183 175 217 82 247 269 103 74 206 119 149 152 95 44 0 340 333 325 322 325 324 320 318 315 314 315 318 319 320 322 321 320 317 316 317 319 319 318 318 318 318 316 313 311
314 198 222 197 221 148 117 129 129 126 120 138 211 4 337 323 318 319 318 318 316 317 317 313 311 314 318 321 321 319 322 319 319 322 325 326 327 327 325 323 318 317 318 317
307 297 294 329 115 123 109 113 115 109 89 49 7 349 326 318 323 318 315 316 317 318 317 316 317 319 323 325 326 326 323 321 321 323 327 330 329 327 324 325 328 325 324 321
244 326 215 73 102 118 170 170 147 117 62 13 352 336 329 326 324 319 318 320 320 320 321 321 323 321 325 326 328 329 322 319 319 321 326 330 329 329 331 330 330 326 323 317
217 219 174 242 162 123 165 155 121 34 0 345 341 338 334 325 323 321 318 321 322 324 326 321 320 321 324 326 329 325 317 314 317 321 325 327 329 328 330 329 329 328 324 314
Height
1506 1514 1522 1521 1521 1520 1522 1524 1527 1518 1513 1511 1506 1501 1489 1484 1481 1481 1481 1483 1486 1490 1496 1500 1505 1510 1513 1516 1518 1521 1523 1524 1526 1527 1528 1529 1529 1529 1529 1530 1529 1529 1528 1527
1512 1519 1521 1520 1521 1521 1521 1523 1526 1514 1513 1517 1508 1498 1489 1485 1483 1481 1476 1480 1484 1490 1495 1498 1503 1507 1512 1515 1518 1521 1523 1524 1525 1526 1527 1527 1527 1527 1527 1528 1528 1528 1527 1526
1513 1520 1520 1520 1520 1523 1521 1521 1524 1529 1521 1513 1513 1498 1488 1486 1484 1482 1481 1482 1484 1487 1491 1495 1499 1504 1509 1514 1517 1520 1522 1523 1524 1525 1525 1525 1525 1525 1526 1526 1526 1525 1524 1522
1519 1521 1520 1520 1521 1524 1522 1523 1525 1526 1534 1538 1521 1521 1498 1488 1489 1486 1485 1486 1488 1490 1492 1494 1497 1501 1506 1511 1515 1518 1520 1522 1522 1523 1523 1523 1523 1523 1523 1523 1523 1522 1522 1521
1517 1520 1520 1520 1522 1524 1523 1523 1524 1525 1544 1548 1523 1543 1502 1488 1491 1490 1488 1487 1489 1489 1490 1492 1496 1500 1505 1509 1513 1516 1518 1519 1520 1520 1521 1520 1520 1520 1521 1521 1521 1520 1519 1518
1522 1523 1524 1524 1524 1523 1522 1521 1524 1528 1536 1552 1534 1530 1508 1493 1490 1490 1490 1489 1489 1489 1489 1493 1497 1501 1504 1508 1510 1512 1514 1516 1517 1518 1518 1518 1517 1517 1517 1518 1517 1517 1516 1515
1522 1524 1525 1525 1524 1523 1525 1528 1547 1541 1548 1529 1526 1530 1502 1492 1492 1491 1490 1490 1490 1491 1491 1492 1496 1500 1503 1506 1508 1510 1511 1513 1514 1515 1515 1515 1515 1515 1515 1514 1514 1514 1513 1512
1531 1528 1526 1527 1529 1531 1527 1537 1547 1545 1536 1526 1523 1527 1502 1493 1491 1491 1491 1492 1493 1494 1494 1496 1498 1499 1501 1503 1505 1507 1509 1510 1511 1512 1512 1512 1512 1512 1512 1512 1511 1510 1509 1508
1529 1518 1528 1528 1528 1530 1528 1535 1533 1551 1556 1546 1524 1502 1497 1495 1495 1495 1496 1497 1497 1496 1497 1499 1500 1500 1501 1503 1504 1505 1507 1508 1508 1508 1509 1509 1508 1508 1508 1508 1507 1506 1504 1503
1520 1530 1526 1530 1530 1531 1532 1534 1541 1552 1550 1530 1514 1518 1506 1495 1495 1500 1502 1502 1501 1502 1502 1502 1503 1502 1502 1503 1503 1504 1505 1507 1508 1508 1507 1506 1505 1504 1503 1503 1502 1501 1500 1498
1526 1529 1528 1529 1531 1533 1541 1545 1543 1539 1540 1540 1540 1515 1504 1505 1506 1506 1504 1504 1502 1501 1502 1501 1500 1502 1501 1501 1502 1504 1504 1504 1505 1505 1504 1503 1502 1500 1499 1498 1497 1495 1493 1492
1523 1533 1539 1521 1533 1532 1532 1533 1535 1535 1534 1530 1522 1498 1504 1504 1503 1502 1501 1501 1500 1499 1499 1500 1500 1500 1500 1500 1501 1501 1502 1502 1501 1500 1499 1498 1497 1495 1494 1493 1492 1490 1488 1486
1522 1531 1542 1522 1533 1531 1533 1533 1523 1526 1531 1518 1516 1502 1505 1504 1501 1500 1501 1502 1500 1499 1496 1497 1498 1499 1501 1501 1502 1501 1499 1498 1497 1497 1496 1495 1494 1492 1490 1488 1485 1483 1480 1478
1515 1524 1520 1516 1513 1520 1525 1525 1526 1522 1513 1507 1495 1493 1502 1505 1505 1504 1503 1501 1500 1498 1498 1498 1499 1498 1499 1500 1499 1498 1497 1496 1496 1495 1493 1491 1488 1485 1483 1480 1478 1475 1472 1469
1514 1523 1513 1508 1506 1505 1500 1500 1505 1508 1497 1499 1483 1489 1499 1504 1504 1504 1501 1500 1500 1498 1497 1496 1496 1497 1497 1497 1497 1497 1496 1495 1493 1490 1487 1484 1481 1477 1474 1472 1469 1467 1463 1461
1511 1506 1510 1501 1501 1500 1495 1497 1494 1491 1489 1485 1486 1487 1500 1502 1502 1501 1499 1498 1497 1497 1497 1496 1496 1495 1494 1494 1495 1493 1491 1491 1488 1485 1481 1478 1474 1470 1467 1464 1460 1458 1454 1451
1511 1510 1511 1486 1493 1498 1492 1485 1484 1495 1491 1489 1487 1499 1501 1499 1498 1498 1496 1495 1496 1497 1497 1497 1496 1496 1496 1494 1492 1490 1487 1483 1481 1476 1473 1470 1466 1462 1458 1455 1452 1448 1444 1441
1505 1508 1506 1492 1498 1489 1488 1487 1486 1489 1497 1495 1497 1499 1498 1497 1496 1495 1495 1495 1496 1496 1496 1495 1494 1493 1492 1490 1488 1485 1481 1478 1473 1469 1465 1461 1457 1453 1449 1446 1442 1438 1435 1431
1492 1499 1497 1493 1487 1481 1488 1488 1489 1491 1496 1496 1498 1497 1496 1494 1494 1497 1497 1497 1496 1495 1494 1493 1492 1490 1488 1485 1482 1479 1474 1469 1465 1461 1457 1453 1449 1445 1441 1437 1434 1431 1426 1423
1494 1494 1493 1491 1487 1482 1492 1486 1487 1488 1496 1498 1497 1496 1494 1491 1499 1498 1496 1495 1495 1493 1491 1490 1489 1487 1484 1480 1476 1471 1467 1462 1457 1453 1449 1445 1441 1437 1432 1429 1426 1422 1419 1415
1497 1499 1494 1491 1485 1483 1484 1486 1487 1490 1501 1496 1495 1496 1496 1496 1496 1496 1495 1494 1492 1490 1488 1486 1484 1481 1477 1473 1468 1464 1459 1455 1450 1446 1442 1438 1434 1429 1426 1421 1418 1414 1411 1407
1494 1498 1505 1502 1504 1488 1483 1485 1489 1493 1493 1494 1495 1496 1495 1495 1493 1492 1491 1489 1487 1485 1483 1481 1479 1476 1472 1467 1462 1458 1454 1449 1444 1440 1435 1431 1427 1423 1419 1416 1412 1409 1405 1401
1501 1493 1497 1490 1483 1484 1484 1484 1488 1492 1494 1495 1494 1492 1491 1491 1490 1488 1486 1486 1484 1481 1479 1476 1473 1470 1466 1462 1457 1452 1447 1442 1437 1433 1429 1425 1421 1418 1415 1411 1408 1404 1401 1397
1488 1485 1486 1485 1486 1486 1486 1488 1490 1490 1493 1495 1493 1490 1490 1488 1487 1485 1483 1481 1479 1477 1473 1470 1467 1462 1458 1455 1451 1446 1440 1435 1431 1427 1424 1420 1417 1413 1410 1407 1404 1399 1396 1392
1490 1485 1482 1485 1486 1488 1489 1489 1490 1491 1492 1492 1491 1489 1487 1485 1484 1481 1479 1477 1475 1472 1469 1464 1460 1456 1453 1449 1445 1440 1435 1430 1427 1423 1420 1416 1412 1408 1405 1402 1399 1395 1392 1388
1478 1478 1483 1480 1480 1482 1485 1488 1490 1490 1490 1489 1488 1486 1484 1482 1479 1476 1475 1473 1470 1466 1462 1458 1455 1451 1447 1443 1439 1434 1431 1427 1423 1419 1416 1413 1408 1405 1401 1398 1393 1391 1387 1384